Location: Newark
(54.0500°N, 12.8333°E)
Time: 23:56:51
(UTC+00:00)

Transit 4A - Pass Details

Date: 24 January 2020
Orbit: 872 x 973 km, 66.8° (Epoch: 24 February)

Event Time Altitude Azimuth Distance (km) Brightness Sun altitude
Rises 04:13:30 0° 147° (SSE) 3,537 11.3 -25.3°
Reaches altitude 10° 04:18:36 10° 110° (ESE) 2,575 11.1 -24.6°
Maximum altitude 04:19:39 11° 100° (E) 2,536 11.2 -24.4°
Drops below altitude 10° 04:20:42 10° 90° (E) 2,567 11.3 -24.3°
Sets 04:25:43 0° 53° (NE) 3,492 11.7 -23.5°
